Regional Weather Roundup
Issued by NWS

Home | Current Version | Previous Version | Graphics & Text | Print | Product List | Glossary On
Versions: 1 2 3 4 5 6 7 8 9 10 11 12 13 14 15 16 17 18 19 20 21 22 23 24 25 26 27 28 29 30 31 32 33 34 35 36 37 38 39 40 41 42 43 44 45 46 47 48 49 50
000
ASUS45 KBOU 191307
RWRCO

WEATHER ROUNDUP FOR COLORADO
NATIONAL WEATHER SERVICE DENVER/BOULDER CO
700 AM MDT TUE AUG 19 2014

NOTE: "FAIR" INDICATES FEW OR NO CLOUDS BELOW 12000 FEET WITH NO
SIGNIFICANT WEATHER AND/OR OBSTRUCTIONS TO VISIBILITY.

COZ001>005-013-030-031-191400-
...NORTHWEST COLORADO...

CITY           SKY/WX    TMP DP  RH WIND       PRES   REMARKS
CRAIG          CLOUDY    53  44  71 CALM      30.10R
HAYDEN         CLOUDY    54  39  58 SE9       30.12R
MEEKER         CLOUDY    58  41  53 CALM      30.12R
MOUNT WERNER   NOT AVBL
STEAMBOAT SPGS CLOUDY    48  42  77 CALM      30.15R
WALDEN         PTCLDY    39  34  81 E5        30.23R
$$

COZ006>008-011-191400-
...WEST CENTRAL VALLEYS...

CITY           SKY/WX    TMP DP  RH WIND       PRES   REMARKS
GRAND JUNCTION LGT RAIN  72  45  37 N9        30.00F
MONTROSE       LGT RAIN  68  49  50 SE14      30.10F
EAGLE          MOCLDY    54  41  62 CALM      30.19R
RIFLE          CLOUDY    61  44  53 E3        30.09R
DELTA          NOT AVBL
NUCLA          CLOUDY    64  46  52 SE9       30.15R
$$

COZ017>023-064>068-191400-
...SOUTHWEST COLORADO...

CITY           SKY/WX    TMP DP  RH WIND       PRES   REMARKS
DURANGO        MOCLDY    58  49  72 W3        30.16R
CORTEZ         CLEAR     61  54  77 CALM      30.12S
PAGOSA SPRINGS MOCLDY    55  45  68 CALM      30.23R
TELLURIDE      NOT AVBL
WOLF CREEK PAS NOT AVBL
$$

COZ009-010-012-014-032>034-037-058>063-191400-
...CENTRAL COLORADO...

CITY           SKY/WX    TMP DP  RH WIND       PRES   REMARKS
ASPEN          CLOUDY    60  39  45 SE7       30.22S
BUENA VISTA    CLOUDY    52  38  57 NW7       30.25S
COPPER MTN     MOCLDY    50  32  50 S15       30.52R
BERTHOUD PASS  FAIR      43  41  93 W9        30.55S
COTTONWOOD PAS CLOUDY    59  34  38 W14G21    30.37R
GUNNISON       CLOUDY    52  39  62 NE5       30.29R
KREMMLING      MOCLDY    41  34  75 CALM      30.24R
LEADVILLE      CLOUDY    44  36  73 CALM      30.37R
MONARCH PASS   MOCLDY    43  34  70 W24       30.61S
SALIDA         CLOUDY    58  40  52 N16       30.29R
SUNLIGHT       CLOUDY    50  37  62 CALM      30.44S
WILKERSON PASS CLOUDY    48  34  57 SW9G17    30.47S
$$

COZ069>075-191400-
...SAN LUIS VALLEY/SANGRE DE CRISTO MOUNTAINS...

CITY           SKY/WX    TMP DP  RH WIND       PRES   REMARKS
ALAMOSA        MOCLDY    53  46  77 N5        30.23R
LA VETA PASS   CLOUDY    48  36  61 S12       30.36S
SAGUACHE       MOCLDY    52  43  71 NW7       30.27S
$$

COZ035-036-038>040-191400-
...NORTHERN COLORADO FRONT RANGE...

CITY           SKY/WX    TMP DP  RH WIND       PRES   REMARKS
DENVER INTL AP CLOUDY    60  47  61 W9        29.99S
DMNS CITY PARK   N/A     60  47  62 S2        30.00R
AURORA         MOCLDY    60  47  61 W5        30.02R
FRONT RANGE AP CLOUDY    63  48  59 SW6       30.00S
ERIE MUNI ARPT MOCLDY    55  49  83 CALM      29.99R
BOULDER MUN AP MOCLDY    63  48  59 CALM      29.99R
CENTENNIAL     CLOUDY    59  45  59 S6        30.02F
BROOMFIELD     MOCLDY    59  46  63 CALM      30.02S
FORT COLLINS   MOCLDY    57  50  77 CALM      30.00S
LONGMONT       MOCLDY    58  52  81 CALM      30.00S HAZE
$$

COZ041-046-047-076>085-087-088-191400-
...PIKES PEAK/PALMER DIVIDE AND SOUTHERN FOOTHILLS...

CITY           SKY/WX    TMP DP  RH WIND       PRES   REMARKS
COLO. SPRINGS  MOCLDY    59  50  72 N7        30.07R
A. F. ACADEMY  CLOUDY    55  47  72 N10       30.09R
ELLICOTT       MOCLDY    57  49  74 CALM      30.06R
FALCON         MOCLDY    59  45  59 NW3       30.12R
FORT CARSON    MOCLDY    61  46  59 N6        30.04S
LIMON          CLOUDY    54  49  83 N5        30.00F
MONUMENT HILL  CLOUDY    59  43  55 SW8       30.11R
TRINIDAD       MOCLDY    62  44  51 W9        30.06R
$$

COZ042>045-048>051-090-091-191400-
...NORTHEAST COLORADO...

CITY           SKY/WX    TMP DP  RH WIND       PRES   REMARKS
GREELEY ARPT   MOCLDY    55  46  71 NE3       29.97F
AKRON          PTCLDY    59  55  87 NE6       29.97S
BURLINGTON     MOCLDY    59  54  83 W5        29.95R
WRAY             N/A     58  54  86 CALM      29.94S
STERLING       PTCLDY    59  57  94 CALM      29.94F
HOLYOKE        NOT AVBL
FORT MORGAN    PTCLDY    58  53  83 CALM      29.97S
$$

COZ086-089-092>099-191400-
...SOUTHEAST COLORADO...

CITY           SKY/WX    TMP DP  RH WIND       PRES   REMARKS
PUEBLO         MOCLDY    66  50  56 N3        29.98R
LA JUNTA       PTCLDY    62  53  72 W10       29.94S
LAMAR          MOCLDY    68  46  45 S10       29.90R
SPRINGFIELD      N/A     67  49  52 S14       29.98R
$$


USA.gov is the U.S. government's official web portal to all federal, state and local government web resources and services.